Location: Csohesd
(46.2500°N, 22.6167°E)
Time: 06:00:11
(UTC+00:00)

Cosmos 1821 Rocket - Pass Details

Date: 21 October 2021
Orbit: 944 x 1005 km, 82.9° (Epoch: 04 December)

Event Time Altitude Azimuth Distance (km) Brightness Sun altitude
Rises 15:58:54 0° 174° (S) 3,719 7.1 -5.3°
Reaches altitude 10° 16:01:27 10° 171° (S) 2,773 6.4 -5.7°
Maximum altitude 16:07:42 61° 93° (E) 1,135 4.1 -6.8°
Drops below altitude 10° 16:13:57 10° 15° (NNE) 2,772 6.2 -7.9°
Sets 16:16:30 0° 12° (NNE) 3,718 6.8 -8.3°
